ARE4334 SKRG-SKMR

Flight info

Callsign ARE4334
Flight time 0h 33m
Altitude 22000
Route BUTAL3A BUTAL BUTAL2E
Aircraft A320/M-SDE3FGHIRWY/LB1

Departure

Time 2026-05-05 00:25
Airport Jose Maria Córdova International Airport (SKRG)

Arrival

Time 2026-05-05 00:58
Airport Los Garzones Airport (SKMR)
Time Latitude Longitude Altitude Speed Heading
2026-05-04 23:50 6.17002 -75.42738 7018 ft 0 kts 317°
2026-05-05 00:15 6.17001 -75.42738 7018 ft 2 kts 317°
2026-05-05 00:15 6.16983 -75.42722 7018 ft 4 kts 325°
2026-05-05 00:15 6.16960 -75.42709 7018 ft 4 kts 338°
2026-05-05 00:15 6.16948 -75.42704 7018 ft 1 kts 339°
2026-05-05 00:18 6.16949 -75.42704 7018 ft 0 kts 340°
2026-05-05 00:18 6.16953 -75.42704 7022 ft 2 kts 359°
2026-05-05 00:19 6.16985 -75.42689 7018 ft 8 kts 36°
2026-05-05 00:19 6.17041 -75.42637 7020 ft 14 kts 68°
2026-05-05 00:19 6.16983 -75.42559 7017 ft 17 kts 149°
2026-05-05 00:19 6.16871 -75.42492 7002 ft 21 kts 152°
2026-05-05 00:20 6.16745 -75.42483 6996 ft 20 kts 179°
2026-05-05 00:20 6.16588 -75.42482 6992 ft 25 kts 179°
2026-05-05 00:20 6.16403 -75.42480 6984 ft 29 kts 180°
2026-05-05 00:20 6.16197 -75.42478 6978 ft 27 kts 180°
2026-05-05 00:21 6.16006 -75.42477 6976 ft 28 kts 180°
2026-05-05 00:21 6.15807 -75.42477 6975 ft 29 kts 180°
2026-05-05 00:21 6.15605 -75.42475 6976 ft 29 kts 179°
2026-05-05 00:21 6.15404 -75.42474 6976 ft 29 kts 179°
2026-05-05 00:22 6.15204 -75.42472 6977 ft 27 kts 180°
2026-05-05 00:22 6.15026 -75.42472 6976 ft 18 kts 180°
2026-05-05 00:22 6.14903 -75.42462 6977 ft 17 kts 147°
2026-05-05 00:22 6.14899 -75.42348 6974 ft 17 kts 60°
2026-05-05 00:23 6.14988 -75.42298 6978 ft 2 kts
2026-05-05 00:23 6.14990 -75.42298 6978 ft 0 kts
2026-05-05 00:24 6.15028 -75.42298 6979 ft 24 kts
2026-05-05 00:24 6.15452 -75.42302 6982 ft 95 kts 359°
2026-05-05 00:24 6.16317 -75.42309 6981 ft 151 kts 359°
2026-05-05 00:24 6.17069 -75.42311 7099 ft 168 kts
2026-05-05 00:25 6.18237 -75.42288 7702 ft 169 kts
2026-05-05 00:25 6.19422 -75.42229 8307 ft 172 kts
2026-05-05 00:25 6.20688 -75.42222 8544 ft 192 kts 359°
2026-05-05 00:25 6.22098 -75.42256 8696 ft 213 kts 359°
2026-05-05 00:26 6.23667 -75.42294 8814 ft 238 kts 359°
2026-05-05 00:26 6.25407 -75.42331 9040 ft 262 kts 359°
2026-05-05 00:26 6.27311 -75.42362 9299 ft 285 kts 360°
2026-05-05 00:26 6.29329 -75.42388 9824 ft 294 kts 359°
2026-05-05 00:27 6.31423 -75.42409 10215 ft 311 kts 359°
2026-05-05 00:27 6.33653 -75.42427 10592 ft 326 kts
2026-05-05 00:27 6.35955 -75.42424 11043 ft 334 kts
2026-05-05 00:27 6.38295 -75.42401 11497 ft 339 kts
2026-05-05 00:28 6.40671 -75.42366 11942 ft 343 kts
2026-05-05 00:28 6.43068 -75.42333 12385 ft 346 kts
2026-05-05 00:28 6.45479 -75.42335 12843 ft 348 kts
2026-05-05 00:28 6.47912 -75.42382 13296 ft 351 kts 360°
2026-05-05 00:29 6.50362 -75.42451 13749 ft 353 kts 359°
2026-05-05 00:29 6.52791 -75.42525 14193 ft 355 kts 359°
2026-05-05 00:29 6.55266 -75.42600 14644 ft 357 kts 360°
2026-05-05 00:29 6.57764 -75.42670 15095 ft 359 kts 360°
2026-05-05 00:30 6.60269 -75.42735 15542 ft 362 kts
2026-05-05 00:30 6.62790 -75.42795 15998 ft 364 kts
2026-05-05 00:30 6.65333 -75.42854 16451 ft 366 kts
2026-05-05 00:30 6.67890 -75.42912 16903 ft 369 kts
2026-05-05 00:31 6.70464 -75.42972 17355 ft 371 kts
2026-05-05 00:31 6.73056 -75.43033 17807 ft 374 kts
2026-05-05 00:31 6.75660 -75.43094 18257 ft 376 kts
2026-05-05 00:31 6.78285 -75.43158 18700 ft 379 kts
2026-05-05 00:32 6.80927 -75.43222 19162 ft 381 kts
2026-05-05 00:32 6.83584 -75.43287 19614 ft 383 kts
2026-05-05 00:32 6.86256 -75.43354 20064 ft 385 kts
2026-05-05 00:32 6.88943 -75.43420 20517 ft 387 kts
2026-05-05 00:33 6.91649 -75.43483 20968 ft 390 kts
2026-05-05 00:33 6.94366 -75.43546 21420 ft 392 kts
2026-05-05 00:33 6.97101 -75.43610 21872 ft 394 kts
2026-05-05 00:33 6.99857 -75.43677 22096 ft 397 kts
2026-05-05 00:34 7.02576 -75.43745 22136 ft 385 kts
2026-05-05 00:34 7.05236 -75.43809 22151 ft 381 kts
2026-05-05 00:34 7.07884 -75.43871 22153 ft 380 kts
2026-05-05 00:34 7.10528 -75.43933 22154 ft 380 kts
2026-05-05 00:35 7.13173 -75.43997 22138 ft 380 kts
2026-05-05 00:35 7.15815 -75.44064 22134 ft 380 kts 360°
2026-05-05 00:35 7.18455 -75.44128 22128 ft 380 kts
2026-05-05 00:35 7.21094 -75.44189 22125 ft 379 kts
2026-05-05 00:36 7.23729 -75.44250 22120 ft 379 kts 360°
2026-05-05 00:36 7.26369 -75.44312 22120 ft 380 kts 360°
2026-05-05 00:36 7.29015 -75.44375 22122 ft 380 kts 360°
2026-05-05 00:36 7.31661 -75.44439 22121 ft 380 kts 360°
2026-05-05 00:37 7.34300 -75.44505 22113 ft 380 kts 360°
2026-05-05 00:37 7.36944 -75.44568 22116 ft 380 kts 360°
2026-05-05 00:37 7.39585 -75.44630 22114 ft 380 kts
2026-05-05 00:37 7.42224 -75.44692 22109 ft 379 kts 360°
2026-05-05 00:38 7.44865 -75.44757 22102 ft 379 kts 360°
2026-05-05 00:38 7.47505 -75.44820 22104 ft 380 kts 360°
2026-05-05 00:38 7.50110 -75.44880 22101 ft 380 kts 360°
2026-05-05 00:38 7.52726 -75.44941 22081 ft 370 kts 360°
2026-05-05 00:39 7.55261 -75.45003 21945 ft 359 kts 360°
2026-05-05 00:39 7.57726 -75.45059 21631 ft 351 kts
2026-05-05 00:39 7.60161 -75.45116 21221 ft 349 kts
2026-05-05 00:39 7.62581 -75.45173 20809 ft 347 kts
2026-05-05 00:40 7.64993 -75.45231 20402 ft 346 kts
2026-05-05 00:40 7.67392 -75.45292 19991 ft 344 kts
2026-05-05 00:40 7.69781 -75.45353 19583 ft 343 kts
2026-05-05 00:40 7.72159 -75.45411 19184 ft 341 kts
2026-05-05 00:41 7.74526 -75.45467 18779 ft 339 kts
2026-05-05 00:41 7.76881 -75.45521 18378 ft 339 kts
2026-05-05 00:41 7.79234 -75.45575 17990 ft 337 kts
2026-05-05 00:41 7.81561 -75.45631 17382 ft 333 kts
2026-05-05 00:42 7.83869 -75.45687 16687 ft 330 kts
2026-05-05 00:42 7.86138 -75.45966 16016 ft 329 kts 348°
2026-05-05 00:42 7.88329 -75.46601 15340 ft 326 kts 345°
2026-05-05 00:42 7.90495 -75.47247 14680 ft 323 kts 345°
2026-05-05 00:43 7.92640 -75.47883 14037 ft 320 kts 345°
2026-05-05 00:43 7.94766 -75.48510 13393 ft 317 kts 345°
2026-05-05 00:43 7.96867 -75.49130 12743 ft 313 kts 344°
2026-05-05 00:43 7.98950 -75.49746 12214 ft 311 kts 344°
2026-05-05 00:44 8.01023 -75.50360 11948 ft 310 kts 344°
2026-05-05 00:44 8.03091 -75.50972 11698 ft 309 kts 344°
2026-05-05 00:44 8.05156 -75.51582 11447 ft 308 kts 344°
2026-05-05 00:44 8.07209 -75.52188 11198 ft 307 kts 344°
2026-05-05 00:45 8.09256 -75.52795 10945 ft 306 kts 344°
2026-05-05 00:45 8.11293 -75.53399 10695 ft 305 kts 344°
2026-05-05 00:45 8.13324 -75.54004 10444 ft 304 kts 344°
2026-05-05 00:45 8.15347 -75.54606 10193 ft 302 kts 344°
2026-05-05 00:46 8.17361 -75.55202 9957 ft 300 kts 344°
2026-05-05 00:46 8.19362 -75.55793 9833 ft 300 kts 344°
2026-05-05 00:46 8.21359 -75.56384 9708 ft 299 kts 344°
2026-05-05 00:46 8.23354 -75.56978 9582 ft 299 kts 344°
2026-05-05 00:47 8.25319 -75.57562 9452 ft 298 kts 344°
2026-05-05 00:47 8.27307 -75.58152 9328 ft 298 kts 343°
2026-05-05 00:47 8.29293 -75.58741 9203 ft 297 kts 343°
2026-05-05 00:47 8.31277 -75.59330 9075 ft 297 kts 343°
2026-05-05 00:48 8.33241 -75.59913 8853 ft 290 kts 343°
2026-05-05 00:48 8.35169 -75.60486 8514 ft 289 kts 343°
2026-05-05 00:48 8.37082 -75.61056 8302 ft 282 kts 343°
2026-05-05 00:48 8.38932 -75.61605 8210 ft 272 kts 344°
2026-05-05 00:49 8.40718 -75.62134 8097 ft 263 kts 344°
2026-05-05 00:49 8.42446 -75.62648 7985 ft 254 kts 343°
2026-05-05 00:49 8.44113 -75.63143 7867 ft 245 kts 343°
2026-05-05 00:49 8.45722 -75.63621 7759 ft 240 kts 344°
2026-05-05 00:50 8.47317 -75.64095 7653 ft 238 kts 343°
2026-05-05 00:50 8.48916 -75.64567 7371 ft 240 kts 344°
2026-05-05 00:50 8.50520 -75.65041 7036 ft 240 kts 344°
2026-05-05 00:50 8.52118 -75.65513 6720 ft 239 kts 344°
2026-05-05 00:51 8.53711 -75.65986 6405 ft 238 kts 344°
2026-05-05 00:51 8.55295 -75.66455 6091 ft 237 kts 344°
2026-05-05 00:51 8.56873 -75.66923 5780 ft 236 kts 343°
2026-05-05 00:51 8.58443 -75.67391 5470 ft 235 kts 343°
2026-05-05 00:52 8.60009 -75.67855 5162 ft 234 kts 343°
2026-05-05 00:52 8.61574 -75.68320 4858 ft 235 kts 343°
2026-05-05 00:52 8.63137 -75.68785 4555 ft 234 kts 343°
2026-05-05 00:52 8.64666 -75.69240 4428 ft 221 kts 343°
2026-05-05 00:53 8.66115 -75.69670 4115 ft 216 kts 343°
2026-05-05 00:53 8.67553 -75.70100 3748 ft 214 kts 342°
2026-05-05 00:53 8.68969 -75.70526 3408 ft 210 kts 340°
2026-05-05 00:53 8.70136 -75.71321 3173 ft 200 kts 313°
2026-05-05 00:54 8.71094 -75.72280 2920 ft 187 kts 316°
2026-05-05 00:54 8.72031 -75.73139 2675 ft 176 kts 317°
2026-05-05 00:54 8.72916 -75.73946 2434 ft 166 kts 317°
2026-05-05 00:54 8.73743 -75.74702 2207 ft 154 kts 317°
2026-05-05 00:55 8.74515 -75.75408 2007 ft 145 kts 316°
2026-05-05 00:55 8.75253 -75.76084 1817 ft 142 kts 317°
2026-05-05 00:55 8.75971 -75.76740 1618 ft 139 kts 317°
2026-05-05 00:55 8.76689 -75.77396 1422 ft 139 kts 316°
2026-05-05 00:56 8.77403 -75.78050 1226 ft 138 kts 316°
2026-05-05 00:56 8.78115 -75.78701 1035 ft 138 kts 316°
2026-05-05 00:56 8.78822 -75.79353 849 ft 137 kts 316°
2026-05-05 00:56 8.79523 -75.80010 660 ft 137 kts 316°
2026-05-05 00:57 8.80224 -75.80663 407 ft 137 kts 316°
2026-05-05 00:57 8.80936 -75.81303 228 ft 137 kts 318°
2026-05-05 00:57 8.81656 -75.81942 66 ft 138 kts 318°
2026-05-05 00:57 8.82280 -75.82508 32 ft 92 kts 317°
2026-05-05 00:58 8.82586 -75.82791 31 ft 49 kts 318°
2026-05-05 00:58 8.82776 -75.82962 30 ft 31 kts 318°
2026-05-05 00:58 8.82913 -75.83088 32 ft 22 kts 317°
2026-05-05 00:58 8.83024 -75.83191 32 ft 15 kts 316°
2026-05-05 00:59 8.83076 -75.83245 35 ft 7 kts 18°
2026-05-05 00:59 8.83066 -75.83224 36 ft 6 kts 141°
2026-05-05 00:59 8.83021 -75.83188 33 ft 11 kts 140°
2026-05-05 00:59 8.82953 -75.83128 31 ft 14 kts 137°
2026-05-05 01:00 8.82871 -75.83051 30 ft 18 kts 138°
2026-05-05 01:00 8.82770 -75.82960 31 ft 21 kts 138°
2026-05-05 01:00 8.82658 -75.82857 30 ft 22 kts 138°
2026-05-05 01:00 8.82542 -75.82752 31 ft 18 kts 138°
2026-05-05 01:01 8.82462 -75.82660 32 ft 17 kts 102°
2026-05-05 01:01 8.82476 -75.82582 35 ft 10 kts 23°
2026-05-05 01:01 8.82522 -75.82565 36 ft 6 kts 36°
2026-05-05 01:01 8.82540 -75.82547 37 ft 1 kts 51°
2026-05-05 01:02 8.82542 -75.82545 37 ft 0 kts 49°